Location: Laas
(43.4693°N, 0.3073°E)
Time: 16:00:08
(UTC+00:00)

Cosmos 1110 Rocket - Pass Details

Date: 25 October 2020
Orbit: 753 x 780 km, 74.0° (Epoch: 24 November)

Event Time Altitude Azimuth Distance (km) Brightness Sun altitude
Rises 17:39:04 0° 195° (SSW) 3,233 7.6 -7.9°
Reaches altitude 10° 17:41:26 10° 194° (SSW) 2,306 6.8 -8.3°
Maximum altitude 17:46:40 79° 109° (ESE) 785 4.0 -9.2°
Drops below altitude 10° 17:51:54 10° 23° (NNE) 2,304 6.2 -10.2°
Sets 17:54:16 0° 22° (NNE) 3,230 6.9 -10.6°
